GW7085 Weather Reports


Display with metric or nautical units.
time (UTC)temp
F
wind
direction
speed
MPH
gust
MPH
rain 1hr
in
rain 24hr
in
rain mn
in
humidity
%
barometer
mb
20260505014029 68 104 0.0 3.0 0.00 0.00 0.00 36 1015.4
20260505013526 68 93 0.0 1.0 0.00 0.00 0.00 35 1015.2
20260505013024 68 92 0.0 1.0 0.00 0.00 0.00 35 1015.0
20260505012522 68 94 0.0 0.0 0.00 0.00 0.00 34 1015.0
20260505012018 69 95 0.0 0.0 0.00 0.00 0.00 34 1014.9
20260505011513 69 94 0.0 1.0 0.00 0.00 0.00 33 1015.0
20260505011011 69 100 0.0 0.0 0.00 0.00 0.00 33 1015.0
20260505010506 70 100 0.0 0.0 0.00 0.00 0.00 33 1015.0
20260505010003 70 62 0.0 1.0 0.00 0.00 0.00 32 1014.9
20260505005459 70 62 0.0 0.0 0.00 0.00 0.00 33 1014.7
20260505004957 71 59 0.0 0.0 0.00 0.00 0.00 32 1014.8
20260505004454 71 51 0.0 1.0 0.00 0.00 0.00 32 1014.7
20260505003951 71 137 0.0 1.0 0.00 0.00 0.00 32 1014.6
20260505003448 71 92 0.0 1.0 0.00 0.00 0.00 32 1014.6
20260505002944 72 55 0.0 0.0 0.00 0.00 0.00 32 1014.5
20260505002440 72 55 0.0 1.0 0.00 0.00 0.00 31 1014.6
20260505001939 73 112 0.0 0.0 0.00 0.00 0.00 32 1014.6
20260505001436 73 118 0.0 1.0 0.00 0.00 0.00 31 1014.4
20260505000933 73 146 0.0 1.0 0.00 0.00 0.00 31 1014.6
20260505000431 73 182 0.0 1.0 0.00 0.00 0.00 30 1014.3
20260504235927 74 199 0.0 1.0 0.00 0.00 0.00 29 1014.5
20260504235425 74 49 0.0 1.0 0.00 0.00 0.00 29 1014.2
20260504234921 74 49 0.0 1.0 0.00 0.00 0.00 28 1014.2
20260504234419 75 104 1.0 1.0 0.00 0.00 0.00 28 1014.2
20260504233915 75 32 0.0 1.0 0.00 0.00 0.00 28 1014.0
20260504233411 75 74 1.0 1.0 0.00 0.00 0.00 27 1013.9
20260504232908 75 130 0.0 1.0 0.00 0.00 0.00 29 1013.9
20260504232405 75 112 1.0 1.0 0.00 0.00 0.00 28 1013.9
20260504231902 75 90 1.0 2.0 0.00 0.00 0.00 28 1013.9
20260504231358 75 115 1.0 1.0 0.00 0.00 0.00 30 1014.0
20260504230854 75 74 0.0 2.0 0.00 0.00 0.00 28 1013.8
20260504230352 76 133 1.0 3.0 0.00 0.00 0.00 28 1014.0
20260504225850 76 157 3.0 6.0 0.00 0.00 0.00 27 1013.9
20260504225346 76 166 1.0 2.0 0.00 0.00 0.00 27 1013.8
20260504224844 76 123 0.0 1.0 0.00 0.00 0.00 27 1013.8
20260504224341 76 106 0.0 1.0 0.00 0.00 0.00 26 1013.8
20260504223837 77 85 0.0 1.0 0.00 0.00 0.00 26 1013.9
20260504223333 77 86 0.0 2.0 0.00 0.00 0.00 26 1013.9
20260504222830 77 9 1.0 1.0 0.00 0.00 0.00 24 1013.8
20260504222327 77 340 1.0 2.0 0.00 0.00 0.00 24 1013.8
20260504221825 77 140 0.0 1.0 0.00 0.00 0.00 24 1013.9
20260504221321 78 100 0.0 2.0 0.00 0.00 0.00 24 1013.9
20260504220818 78 92 2.0 3.0 0.00 0.00 0.00 21 1013.8
20260504220315 78 144 0.0 1.0 0.00 0.00 0.00 23 1014.1
20260504215813 78 170 0.0 3.0 0.00 0.00 0.00 24 1013.7
20260504215309 78 104 1.0 1.0 0.00 0.00 0.00 24 1013.9
20260504214805 78 160 0.0 1.0 0.00 0.00 0.00 24 1013.9
20260504214302 78 48 0.0 1.0 0.00 0.00 0.00 23 1013.9
20260504213758 78 91 0.0 2.0 0.00 0.00 0.00 23 1014.0
20260504213254 78 287 2.0 3.0 0.00 0.00 0.00 24 1013.9
20260504212752 78 172 0.0 2.0 0.00 0.00 0.00 23 1013.9
20260504212248 78 267 1.0 2.0 0.00 0.00 0.00 23 1014.0
20260504211746 78 359 0.0 1.0 0.00 0.00 0.00 23 1014.0
20260504211241 78 179 1.0 3.0 0.00 0.00 0.00 23 1014.1
20260504210739 78 135 0.0 2.0 0.00 0.00 0.00 23 1014.0
20260504210236 78 210 1.0 2.0 0.00 0.00 0.00 23 1014.0
20260504205733 78 90 1.0 2.0 0.00 0.00 0.00 23 1014.1
20260504205231 78 127 1.0 2.0 0.00 0.00 0.00 24 1014.2
20260504204729 78 184 0.0 1.0 0.00 0.00 0.00 24 1014.2
20260504204227 78 87 1.0 1.0 0.00 0.00 0.00 23 1014.1
20260504203726 78 246 1.0 3.0 0.00 0.00 0.00 22 1014.1
20260504203223 78 251 0.0 3.0 0.00 0.00 0.00 25 1014.5
20260504202723 78 98 0.0 6.0 0.00 0.00 0.00 23 1014.3
20260504202221 78 86 0.0 1.0 0.00 0.00 0.00 23 1014.4
20260504201718 78 87 0.0 3.0 0.00 0.00 0.00 21 1014.6
20260504201215 78 171 0.0 2.0 0.00 0.00 0.00 21 1014.6
20260504200712 78 114 0.0 2.0 0.00 0.00 0.00 21 1014.8
20260504200208 78 252 2.0 3.0 0.00 0.00 0.00 21 1014.8
20260504195705 78 210 1.0 2.0 0.00 0.00 0.00 24 1014.7
20260504195201 78 127 0.0 2.0 0.00 0.00 0.00 23 1014.7
20260504194658 78 20 1.0 2.0 0.00 0.00 0.00 22 1014.8
20260504194154 78 139 0.0 3.0 0.00 0.00 0.00 23 1014.9
20260504193650 78 113 0.0 1.0 0.00 0.00 0.00 22 1014.9
20260504193148 79 89 2.0 2.0 0.00 0.00 0.00 21 1014.9
20260504192646 78 349 1.0 1.0 0.00 0.00 0.00 23 1015.0
20260504192144 78 114 2.0 3.0 0.00 0.00 0.00 21 1014.9
20260504191642 80 270 1.0 3.0 0.00 0.00 0.00 22 1015.0
20260504191138 79 112 1.0 1.0 0.00 0.00 0.00 24 1015.3
20260504190634 79 102 2.0 2.0 0.00 0.00 0.00 23 1015.3
20260504190131 79 192 2.0 2.0 0.00 0.00 0.00 21 1015.2
20260504185627 79 129 1.0 3.0 0.00 0.00 0.00 21 1015.4
20260504185124 78 282 0.0 2.0 0.00 0.00 0.00 25 1015.4
20260504184620 79 255 1.0 6.0 0.00 0.00 0.00 24 1015.4
20260504184115 79 271 1.0 2.0 0.00 0.00 0.00 24 1015.4
20260504183613 80 205 0.0 3.0 0.00 0.00 0.00 25 1015.5
20260504183110 80 302 2.0 3.0 0.00 0.00 0.00 24 1015.6
20260504182608 79 236 2.0 2.0 0.00 0.00 0.00 26 1015.8
20260504182105 78 15 0.0 1.0 0.00 0.00 0.00 25 1015.8
20260504181602 78 207 0.0 1.0 0.00 0.00 0.00 25 1015.7
20260504181100 79 309 3.0 3.0 0.00 0.00 0.00 24 1015.7
20260504180558 79 106 1.0 2.0 0.00 0.00 0.00 25 1016.0
20260504180057 77 188 1.0 2.0 0.00 0.00 0.00 27 1015.8
20260504175554 78 295 3.0 6.0 0.00 0.00 0.00 24 1016.1
20260504175050 79 312 1.0 4.0 0.00 0.00 0.00 22 1016.1
20260504174549 78 117 1.0 2.0 0.00 0.00 0.00 23 1016.2
20260504174045 77 52 0.0 3.0 0.00 0.00 0.00 25 1016.4
20260504173542 77 8 1.0 3.0 0.00 0.00 0.00 23 1016.2
20260504173040 77 147 0.0 1.0 0.00 0.00 0.00 24 1016.4
20260504172535 76 290 1.0 2.0 0.00 0.00 0.00 24 1016.4
20260504172032 77 332 1.0 2.0 0.00 0.00 0.00 24 1016.5
20260504171529 77 60 0.0 2.0 0.00 0.00 0.00 23 1016.6
20260504171026 77 302 1.0 3.0 0.00 0.00 0.00 23 1016.4
20260504170522 78 169 1.0 1.0 0.00 0.00 0.00 24 1016.5
20260504160442 75 291 3.0 3.0 0.00 0.00 0.00 26 1017.8
20260504150906 74 132 1.0 2.0 0.00 0.00 0.00 34 1017.7
20260504150403 74 117 2.0 3.0 0.00 0.00 0.00 33 1017.8
20260504141332 69 31 1.0 2.0 0.00 0.00 0.00 42 1018.0
20260504140829 69 119 1.0 1.0 0.00 0.00 0.00 42 1017.8
20260504140325 68 75 1.0 2.0 0.00 0.00 0.00 45 1017.8
20260504130754 61 353 0.0 0.0 0.00 0.00 0.00 54 1017.8
20260504130250 60 30 1.0 2.0 0.00 0.00 0.00 56 1018.0
20260504120213 51 199 0.0 0.0 0.00 0.00 0.00 76 1017.5
20260504110641 46 199 0.0 0.0 0.00 0.00 0.00 83 1017.5
20260504110137 46 199 0.0 0.0 0.00 0.00 0.00 83 1017.4
20260504100603 47 199 0.0 0.0 0.00 0.00 0.00 80 1017.3
20260504081956 49 199 0.0 0.0 0.00 0.00 0.00 75 1017.1
20260504081454 49 199 0.0 0.0 0.00 0.00 0.00 75 1017.0
20260504080949 49 199 0.0 0.0 0.00 0.00 0.00 74 1016.8
20260504080446 49 199 0.0 0.0 0.00 0.00 0.00 74 1017.0
20260504050259 53 199 0.0 0.0 0.00 0.00 0.00 64 1017.3
20260504045757 53 199 0.0 0.0 0.00 0.00 0.00 63 1017.4
20260504045256 53 199 0.0 0.0 0.00 0.00 0.00 63 1017.4
20260504044754 53 199 0.0 0.0 0.00 0.00 0.00 62 1017.4
20260504044251 53 199 0.0 0.0 0.00 0.00 0.00 62 1017.4
20260504043748 54 199 0.0 0.0 0.00 0.00 0.00 61 1017.5
20260504043245 54 199 0.0 0.0 0.00 0.00 0.00 61 1017.5
20260504042743 54 199 0.0 0.0 0.00 0.00 0.00 61 1017.6
20260504042239 54 199 0.0 0.0 0.00 0.00 0.00 60 1017.5
20260504041736 54 199 0.0 0.0 0.00 0.00 0.00 60 1017.8
20260504041232 54 199 0.0 0.0 0.00 0.00 0.00 59 1017.7
20260504040728 54 199 0.0 0.0 0.00 0.00 0.00 59 1017.7
20260504040225 55 199 0.0 0.0 0.00 0.00 0.00 59 1017.5
20260504035721 55 199 0.0 0.0 0.00 0.00 0.00 59 1017.8
20260504035219 55 199 0.0 0.0 0.00 0.00 0.00 58 1017.6
20260504034716 55 199 0.0 0.0 0.00 0.00 0.00 58 1017.6
20260504034213 55 199 0.0 0.0 0.00 0.00 0.00 58 1017.7
20260504033711 55 199 0.0 0.0 0.00 0.00 0.00 58 1017.8
20260504033208 55 199 0.0 0.0 0.00 0.00 0.00 58 1017.7
20260504032705 55 199 0.0 0.0 0.00 0.00 0.00 58 1017.7
20260504032202 55 199 0.0 0.0 0.00 0.00 0.00 58 1017.7
20260504031659 55 199 0.0 0.0 0.00 0.00 0.00 57 1017.9
20260504031155 55 199 0.0 0.0 0.00 0.00 0.00 57 1017.7
20260504030652 55 199 0.0 0.0 0.00 0.00 0.00 57 1017.7
20260504030149 55 199 0.0 0.0 0.00 0.00 0.00 56 1017.6
20260504025646 55 199 0.0 0.0 0.00 0.00 0.00 56 1017.5
20260504025142 56 199 0.0 0.0 0.00 0.00 0.00 55 1017.7
20260504024640 56 199 0.0 0.0 0.00 0.00 0.00 55 1017.8
20260504024136 56 199 0.0 1.0 0.00 0.00 0.00 55 1017.6
20260504023633 56 199 0.0 0.0 0.00 0.00 0.00 54 1017.5
20260504023129 56 199 0.0 0.0 0.00 0.00 0.00 54 1017.4
20260504022625 56 199 0.0 0.0 0.00 0.00 0.00 53 1017.4
20260504022121 57 199 0.0 0.0 0.00 0.00 0.00 52 1017.3
20260504021620 57 199 0.0 0.0 0.00 0.00 0.00 51 1017.3
20260504021116 58 199 0.0 0.0 0.00 0.00 0.00 51 1017.1
20260504020613 58 199 0.0 0.0 0.00 0.00 0.00 50 1017.2
20260504020109 58 199 0.0 0.0 0.00 0.00 0.00 50 1017.0
20260504015606 58 199 0.0 0.0 0.00 0.00 0.00 49 1017.0
20260504015101 58 199 0.0 0.0 0.00 0.00 0.00 49 1016.9
20260504014558 58 199 0.0 0.0 0.00 0.00 0.00 49 1016.7